[[{"header":{"parameterUnit":"m.s-1","parameterCategory":2,"la1":30.2991,"la2":30.254,"lo1":-89.0895,"lo2":-89.0444,"dy":0.0017,"dx":0.0017,"nx":28,"ny":28,"refTime":"2024-06-19T03:00:00:Z","depth":"0","parameterNumber":2,"parameterNumberName":"U-component_of_CURRENTS"},"data":[0,0,0,0,0,0,0,0,0,0,0,0,0,0,0,0,0,0,0,0,0,0,0,0,0,0,0,0,0,0,0,0,0,0,0,0,0,0,0,0,0,0,0,0,0,0,0,0,0,0,0,0,0,0,0,0,0,0,-0.2935,-0.2935,0,-0.2931,-0.2931,-0.2931,-0.2901,-0.2901,-0.29,-0.29,-0.2866,-0.2866,-0.2865,0,0,0,0,0,0,0,0,0,0,0,0,0,-0.2862,-0.2863,-0.2935,-0.2935,-0.2935,-0.2931,-0.2931,-0.293,-0.2901,-0.2901,-0.29,-0.29,-0.2867,-0.2866,-0.2865,0,0,0,0,0,0,0,0,0,0,0,0,0,-0.2876,-0.2864,-0.2935,-0.2923,-0.2922,-0.2931,-0.2931,-0.293,-0.2901,-0.2901,-0.29,-0.29,-0.2867,-0.2866,-0.2865,-0.2871,0,0,-0.2863,-0.2862,0,0,0,0,0,0,0,0,-0.2875,-0.2878,-0.2925,-0.2924,-0.2923,-0.2919,-0.2893,-0.291,-0.2901,-0.2905,-0.29,-0.2899,-0.2884,-0.2882,-0.2878,-0.287,-0.2868,-0.2863,-0.2862,-0.2862,-0.2862,0,0,0,0,0,0,0,-0.2874,-0.2878,-0.293,-0.2925,-0.2924,-0.29,-0.2901,-0.2896,-0.2894,-0.2905,-0.2904,-0.291,-0.2883,-0.2878,-0.2877,-0.2868,-0.2863,-0.2862,-0.2861,-0.2861,-0.2866,-0.2866,0,0,0,0,0,0,-0.2886,-0.2878,-0.293,-0.293,-0.2902,-0.2902,-0.2903,-0.2918,-0.2895,-0.2892,-0.291,-0.2908,-0.288,-0.2878,-0.2875,-0.2913,-0.2862,-0.2861,-0.2861,-0.2865,-0.2866,-0.2867,0,0,0,0,0,0,-0.2885,-0.2891,-0.293,-0.2906,-0.2909,-0.2905,-0.2921,-0.2918,-0.2915,-0.29,-0.2896,-0.291,-0.288,-0.2876,-0.2876,-0.291,-0.2861,-0.286,-0.2864,-0.2865,-0.2866,-0.2967,0,0,0,0,0,0,-0.2883,-0.2891,-0.2901,-0.2907,-0.2911,-0.2956,-0.2922,-0.2919,-0.2921,-0.2919,-0.2899,-0.2895,-0.2879,-0.2877,-0.2875,-0.2908,-0.2859,-0.2864,-0.2865,-0.2866,-0.2963,-0.2972,-0.2979,0,0,0,0,0,-0.288,-0.2909,-0.2902,-0.2908,-0.2927,-0.2958,-0.2958,-0.2949,-0.2922,-0.2938,-0.2912,-0.2895,-0.2883,-0.2877,-0.2874,-0.2908,-0.2863,-0.2865,-0.2866,-0.296,-0.297,-0.2979,0,0,0,0,0,0,-0.2879,-0.2909,-0.2901,-0.2935,-0.2952,-0.2955,-0.2964,-0.2953,-0.2944,-0.2932,-0.2905,-0.29,-0.2912,-0.289,-0.2884,-0.2909,-0.287,-0.2871,-0.2942,-0.2951,-0.2959,-0.2977,-0.2859,0,0,0,0,0,-0.2885,-0.2909,-0.2933,-0.2955,-0.2968,-0.2962,-0.2968,-0.2966,-0.2961,-0.2956,-0.294,-0.2919,-0.2916,-0.2917,-0.2906,-0.2923,-0.291,-0.294,-0.2947,-0.2954,-0.2965,-0.2973,-0.2984,-0.2871,-0.2871,-0.2871,0,0,-0.2887,-0.2906,-0.2917,-0.2955,-0.2959,-0.3001,-0.2964,-0.2984,-0.3013,-0.2954,-0.2974,-0.2945,-0.2923,-0.2943,-0.2946,-0.2931,-0.298,-0.2956,-0.2963,-0.2969,-0.2976,-0.2987,-0.2997,-0.2872,-0.2872,-0.2872,0,0,-0.2911,-0.2923,-0.2956,-0.2986,-0.3012,-0.302,-0.3031,-0.3041,-0.3041,-0.3058,-0.3021,-0.3013,-0.3005,-0.3003,-0.2999,-0.3041,-0.3017,-0.3033,-0.3097,-0.3106,-0.3116,-0.3124,-0.313,-0.3138,-0.3043,-0.3043,-0.3043,0,-0.2908,-0.2961,-0.2969,-0.3018,-0.3048,-0.3036,-0.3086,-0.3096,-0.3102,-0.3109,-0.3078,-0.3065,-0.3039,-0.3074,-0.3082,-0.3063,-0.3058,-0.3069,-0.3119,-0.3127,-0.3134,-0.3138,-0.3146,-0.3048,-0.3047,-0.3047,-0.3046,0,-0.2965,-0.3014,-0.3038,-0.3098,-0.3131,-0.3173,-0.3201,-0.322,-0.3206,-0.3209,-0.3225,-0.3186,-0.3177,-0.3172,-0.3139,-0.318,-0.3158,-0.3126,-0.3102,-0.3152,-0.3152,-0.3159,-0.3055,-0.3053,-0.3052,-0.3051,0,0,-0.294,-0.3057,-0.3063,-0.3105,-0.3181,-0.3205,-0.3273,-0.3322,-0.3351,-0.3345,-0.3377,-0.3361,-0.3318,-0.3309,-0.3269,-0.3277,-0.3314,-0.3226,-0.3224,-0.3245,-0.3336,-0.3338,-0.3344,-0.3294,-0.3295,-0.3296,-0.332,0,-0.2977,-0.3078,-0.3136,-0.3224,-0.3275,-0.3318,-0.338,-0.3419,-0.3434,-0.3461,-0.3436,-0.3435,-0.338,-0.3361,-0.3367,-0.3318,-0.3333,-0.331,-0.3272,-0.3271,-0.3278,-0.3353,-0.3302,-0.3321,-0.3326,-0.3327,-0.3327,0,-0.3009,-0.3074,-0.3171,-0.3284,-0.331,-0.336,-0.344,-0.3496,-0.355,-0.3556,-0.3568,-0.3539,-0.3543,-0.3475,-0.3461,-0.3448,-0.3403,-0.337,-0.337,-0.3342,-0.3286,-0.3268,-0.3332,-0.3324,-0.3337,-0.3336,-0.3335,0,-0.2957,-0.3093,-0.3163,-0.3206,-0.3334,-0.3374,-0.343,-0.3506,-0.3562,-0.36,-0.363,-0.3631,-0.3617,-0.3583,-0.3515,-0.3485,-0.3501,-0.3446,-0.3418,-0.3416,-0.3352,-0.3343,-0.3414,-0.345,-0.345,-0.3449,-0.3449,0,-0.2969,-0.3024,-0.3137,-0.3175,-0.3257,-0.334,-0.3421,-0.3483,-0.3572,-0.3631,-0.3651,-0.3686,-0.3641,-0.3643,-0.3569,-0.353,-0.3544,-0.3453,-0.3435,-0.3385,-0.3379,-0.3348,-0.3334,-0.345,-0.345,-0.345,-0.345,0,-0.2907,-0.299,-0.3075,-0.3199,-0.3237,-0.3281,-0.3423,-0.3472,-0.3566,-0.3646,-0.3659,-0.3733,-0.3727,-0.3703,-0.3649,-0.36,-0.3516,-0.3531,-0.348,-0.3456,-0.3413,-0.3404,-0.3398,-0.3322,-0.3506,-0.3507,-0.3507,0,-0.289,-0.2923,-0.3061,-0.3091,-0.3145,-0.323,-0.3288,-0.3435,-0.3496,-0.3662,-0.3686,-0.3748,-0.3769,-0.3746,-0.3665,-0.3596,-0.3526,-0.3512,-0.3446,-0.3438,-0.3414,-0.3365,-0.3296,-0.3395,-0.3394,-0.3394,-0.3393,0,-0.2828,-0.287,-0.2918,-0.3006,-0.3065,-0.3161,-0.3254,-0.3324,-0.3483,-0.358,-0.3694,-0.3743,-0.3769,-0.3718,-0.3662,-0.3574,-0.3463,-0.3499,-0.35,-0.3359,-0.33,-0.3208,-0.3353,-0.3389,-0.3389,-0.339,-0.339,-0.339,-0.2739,-0.2758,-0.2809,-0.288,-0.2956,-0.3033,-0.305,-0.3192,-0.3308,-0.343,-0.3585,-0.3668,-0.374,-0.3661,-0.3603,-0.3495,-0.3423,-0.3392,-0.3389,-0.3347,-0.3261,-0.3412,-0.3422,-0.3423,-0.3423,-0.3424,-0.3424,0,-0.2608,-0.2631,-0.2678,-0.2741,-0.2753,-0.2861,-0.2967,-0.2958,-0.3039,-0.3273,-0.3381,-0.3589,-0.3581,-0.3618,-0.3566,-0.3441,-0.3309,-0.3331,-0.3246,-0.3182,-0.3331,-0.3314,-0.3291,-0.3291,-0.3291,-0.3291,-0.3291,-0.3291,-0.2525,-0.2502,-0.2538,-0.2501,-0.2536,-0.2497,-0.2518,-0.2573,-0.2701,-0.2882,-0.3104,-0.3304,-0.339,-0.3704,-0.3594,-0.3435,-0.3295,-0.3199,-0.3162,-0.3287,-0.3292,-0.3296,-0.328,-0.325,-0.325,-0.2944,-0.2942,-0.294]},{"header":{"parameterUnit":"m.s-1","parameterCategory":2,"la1":30.2991,"la2":30.254,"lo1":-89.0895,"lo2":-89.0444,"dy":0.0017,"dx":0.0017,"nx":28,"ny":28,"refTime":"2024-06-19T03:00:00:Z","depth":"0","parameterNumber":3,"parameterNumberName":"V-component_of_CURRENTS"},"data":[0,0,0,0,0,0,0,0,0,0,0,0,0,0,0,0,0,0,0,0,0,0,0,0,0,0,0,0,0,0,0,0,0,0,0,0,0,0,0,0,0,0,0,0,0,0,0,0,0,0,0,0,0,0,0,0,0,0,-0.0311,-0.0309,0,-0.0155,-0.0153,-0.0151,-0.0063,-0.0063,-0.0062,-0.0062,0.0148,0.0154,0.0159,0,0,0,0,0,0,0,0,0,0,0,0,0,-0.043,-0.0429,-0.0311,-0.0309,-0.0307,-0.0155,-0.0153,-0.0151,-0.0063,-0.0063,-0.0062,-0.0062,0.0147,0.0153,0.016,0,0,0,0,0,0,0,0,0,0,0,0,0,-0.0336,-0.0429,-0.0311,-0.0246,-0.0239,-0.0156,-0.0153,-0.015,-0.0063,-0.0063,-0.0062,-0.0062,0.0144,0.0152,0.016,0.0206,0,0,0.0186,0.0189,0,0,0,0,0,0,0,0,-0.0341,-0.0331,-0.0257,-0.0251,-0.0242,-0.013,-0.0118,-0.0029,-0.0063,-0.0128,-0.0062,-0.0062,0.0059,0.0074,0.0105,0.0216,0.0225,0.0186,0.0191,0.0195,0.0197,0,0,0,0,0,0,0,-0.0348,-0.0337,-0.0247,-0.0256,-0.0246,-0.019,-0.0177,-0.01,-0.0035,-0.0122,-0.0116,-0.0101,0.0064,0.0097,0.0111,0.0228,0.0186,0.0193,0.0198,0.0202,0.0398,0.0398,0,0,0,0,0,0,-0.0376,-0.0344,-0.0252,-0.0243,-0.0294,-0.0189,-0.0174,-0.0165,-0.0037,-0.0018,-0.0102,-0.0098,0.0083,0.0101,0.0118,0.0191,0.0195,0.0202,0.0207,0.0397,0.0398,0.0398,0,0,0,0,0,0,-0.0379,-0.037,-0.0259,-0.0291,-0.0273,-0.0188,-0.0177,-0.0162,-0.013,-0.0022,-0.0002,-0.0086,0.0083,0.0107,0.0189,0.0199,0.0206,0.0214,0.0397,0.0398,0.0398,0.0329,0,0,0,0,0,0,-0.0384,-0.0372,-0.0375,-0.0293,-0.0272,-0.0217,-0.0177,-0.0159,-0.0122,-0.0115,-0.0002,0.0018,0.0085,0.0176,0.0197,0.021,0.022,0.0397,0.0397,0.0398,0.0331,0.0327,0.0324,0,0,0,0,0,-0.0389,-0.0396,-0.0377,-0.0366,-0.028,-0.0217,-0.0201,-0.0138,-0.0122,-0.0109,-0.0031,0.0014,0.0194,0.0183,0.0207,0.0224,0.0397,0.0397,0.0398,0.0333,0.0328,0.0324,0,0,0,0,0,0,-0.045,-0.0385,-0.0363,-0.035,-0.0293,-0.0203,-0.0188,-0.0146,-0.0075,-0.007,0.0027,0.0053,0.0124,0.0182,0.0168,0.028,0.0299,0.0305,0.0241,0.0238,0.0234,0.0214,0.0227,0,0,0,0,0,-0.0468,-0.0457,-0.0382,-0.0374,-0.0351,-0.0273,-0.0241,-0.0199,-0.0125,-0.0094,-0.0014,0.0069,0.0147,0.0196,0.0269,0.0338,0.039,0.0362,0.0358,0.0354,0.0354,0.0435,0.0438,0.04,0.04,0.04,0,0,-0.0492,-0.0454,-0.0449,-0.0387,-0.034,-0.0307,-0.0253,-0.0213,-0.0177,-0.0082,-0.0014,0.0058,0.016,0.0234,0.0271,0.0286,0.0392,0.0355,0.0352,0.0353,0.0436,0.0439,0.0443,0.0401,0.0401,0.0401,0,0,-0.0536,-0.0501,-0.0507,-0.0461,-0.0398,-0.0342,-0.0336,-0.0249,-0.0203,-0.0131,-0.0056,0.0022,0.014,0.0221,0.0275,0.0296,0.0363,0.0313,0.0293,0.0371,0.0375,0.0379,0.0442,0.0452,0.032,0.0319,0.0319,0,-0.0571,-0.0565,-0.0498,-0.0485,-0.0453,-0.0365,-0.0356,-0.029,-0.0186,-0.0142,-0.0123,0.0057,0.0136,0.0245,0.025,0.029,0.0336,0.03,0.0366,0.0371,0.0376,0.044,0.0452,0.0316,0.0317,0.0317,0.0317,0,-0.0609,-0.0603,-0.0602,-0.0555,-0.0507,-0.0488,-0.039,-0.0337,-0.0275,-0.0201,-0.0094,0.002,0.0127,0.0164,0.0218,0.0299,0.0319,0.0343,0.0372,0.0375,0.0443,0.0456,0.0312,0.0313,0.0314,0.0314,0,0,-0.07,-0.0646,-0.0647,-0.0639,-0.0547,-0.0513,-0.0446,-0.0357,-0.0312,-0.0203,-0.0131,0.0004,0.0066,0.013,0.0213,0.0287,0.0361,0.0322,0.0328,0.0376,0.0523,0.06,0.0623,0.0393,0.0395,0.0397,0.0552,0,-0.0759,-0.0773,-0.0708,-0.0701,-0.07,-0.0586,-0.0532,-0.0431,-0.0331,-0.0236,-0.0099,-0.0005,0.0056,0.0105,0.019,0.0324,0.0395,0.0316,0.0521,0.0527,0.0589,0.0641,0.0735,0.0887,0.0566,0.0569,0.057,0,-0.082,-0.0823,-0.0841,-0.0784,-0.0769,-0.0737,-0.0628,-0.0566,-0.0401,-0.0322,-0.0192,-0.0076,0.0072,0.0104,0.0334,0.0279,0.0387,0.0483,0.0492,0.0599,0.0631,0.0836,0.0925,0.1156,0.0592,0.059,0.0589,0,-0.093,-0.0909,-0.0932,-0.0912,-0.0832,-0.0804,-0.0751,-0.0603,-0.0543,-0.0375,-0.0307,-0.0114,-0.0009,0.0153,0.0374,0.035,0.0619,0.0615,0.0786,0.0792,0.0933,0.0948,0.1266,0.0758,0.0758,0.0757,0.0757,0,-0.1019,-0.1034,-0.0991,-0.1003,-0.102,-0.0912,-0.0883,-0.0793,-0.0649,-0.0572,-0.0372,-0.0256,0.0006,0.0208,0.0372,0.0645,0.0627,0.0801,0.0851,0.0911,0.0921,0.1176,0.1249,0.0763,0.0762,0.0761,0.076,0,-0.113,-0.1103,-0.1134,-0.1088,-0.1077,-0.109,-0.0999,-0.0966,-0.0812,-0.07,-0.0648,-0.035,-0.0068,0.0205,0.0504,0.0658,0.1042,0.0981,0.1031,0.1084,0.144,0.1502,0.1822,0.1923,0.1191,0.1194,0.1197,0,-0.1188,-0.1221,-0.1228,-0.126,-0.1245,-0.1239,-0.1231,-0.1084,-0.1024,-0.0748,-0.0698,-0.0376,-0.0116,0.0378,0.0727,0.1071,0.1198,0.1318,0.1295,0.1504,0.161,0.1626,0.1687,0.1451,0.1455,0.1459,0.1461,0,-0.1302,-0.1306,-0.1335,-0.142,-0.1438,-0.144,-0.1398,-0.1365,-0.1162,-0.1016,-0.0749,-0.0507,0.0051,0.056,0.1033,0.1216,0.1502,0.1401,0.1629,0.186,0.1891,0.1996,0.1283,0.1494,0.1491,0.1488,0.1486,0.1485,-0.1384,-0.1449,-0.1499,-0.1575,-0.1608,-0.1615,-0.1614,-0.1509,-0.1389,-0.1107,-0.0819,-0.0385,0.0421,0.1144,0.137,0.1909,0.1779,0.2041,0.2103,0.2102,0.2208,0.1555,0.181,0.1809,0.1808,0.1807,0.1806,0,-0.1481,-0.155,-0.1644,-0.172,-0.1786,-0.1754,-0.1705,-0.1651,-0.1513,-0.1132,-0.0803,0.0164,0.0909,0.1571,0.2374,0.2622,0.2625,0.272,0.279,0.2817,0.2283,0.2305,0.2667,0.2667,0.2667,0.2667,0.2666,0.2666,-0.1533,-0.1653,-0.1711,-0.186,-0.1906,-0.1945,-0.1918,-0.1786,-0.1514,-0.0909,-0.0321,0.0191,0.1215,0.2591,0.3275,0.3285,0.3468,0.3436,0.35,0.3171,0.3112,0.3055,0.3099,0.3622,0.3623,0.4023,0.4028,0.4031]}],[{"header":{"parameterUnit":"m.s-1","parameterCategory":2,"la1":30.2991,"la2":30.254,"lo1":-89.0895,"lo2":-89.0444,"dy":0.0017,"dx":0.0017,"nx":28,"ny":28,"refTime":"2024-06-19T03:00:00:Z","depth":"2","parameterNumber":2,"parameterNumberName":"U-component_of_CURRENTS"},"data":[0,0,0,0,0,0,0,0,0,0,0,0,0,0,0,0,0,0,0,0,0,0,0,0,0,0,0,0,0,0,0,0,0,0,0,0,0,0,0,0,0,0,0,0,0,0,0,0,0,0,0,0,0,0,0,0,0,0,-0.2849,-0.285,0,-0.2845,-0.2844,-0.2844,-0.2816,-0.2816,-0.2815,-0.2815,-0.2783,-0.2782,-0.2782,0,0,0,0,0,0,0,0,0,0,0,0,0,-0.2777,-0.2779,-0.2849,-0.285,-0.285,-0.2845,-0.2844,-0.2844,-0.2816,-0.2816,-0.2815,-0.2815,-0.2783,-0.2782,-0.2782,0,0,0,0,0,0,0,0,0,0,0,0,0,-0.2791,-0.2779,-0.2849,-0.2838,-0.2837,-0.2845,-0.2844,-0.2844,-0.2816,-0.2816,-0.2815,-0.2815,-0.2783,-0.2782,-0.2782,-0.2786,0,0,-0.2779,-0.2779,0,0,0,0,0,0,0,0,-0.279,-0.2793,-0.284,-0.2839,-0.2838,-0.2834,-0.2807,-0.2824,-0.2816,-0.282,-0.2815,-0.2815,-0.28,-0.2798,-0.2793,-0.2784,-0.2783,-0.2779,-0.2778,-0.2778,-0.2778,0,0,0,0,0,0,0,-0.2789,-0.2793,-0.2843,-0.284,-0.2839,-0.2815,-0.2816,-0.281,-0.2809,-0.282,-0.2819,-0.2825,-0.2799,-0.2794,-0.2792,-0.2783,-0.2779,-0.2778,-0.2778,-0.2777,-0.2782,-0.2783,0,0,0,0,0,0,-0.2802,-0.2792,-0.2844,-0.2844,-0.2817,-0.2817,-0.2818,-0.2833,-0.281,-0.2808,-0.2825,-0.2823,-0.2796,-0.2793,-0.2791,-0.2829,-0.2778,-0.2777,-0.2777,-0.2782,-0.2782,-0.2783,0,0,0,0,0,0,-0.28,-0.2807,-0.2844,-0.282,-0.2824,-0.2819,-0.2835,-0.2833,-0.2831,-0.2815,-0.2811,-0.2826,-0.2795,-0.2792,-0.2792,-0.2827,-0.2777,-0.2776,-0.2781,-0.2782,-0.2783,-0.2885,0,0,0,0,0,0,-0.2798,-0.2806,-0.2817,-0.2822,-0.2826,-0.287,-0.2836,-0.2833,-0.2837,-0.2834,-0.2815,-0.2811,-0.2794,-0.2793,-0.2791,-0.2825,-0.2775,-0.278,-0.2781,-0.2782,-0.288,-0.2889,-0.2896,0,0,0,0,0,-0.2796,-0.2824,-0.2817,-0.2823,-0.2842,-0.2872,-0.2872,-0.2863,-0.2837,-0.2854,-0.2829,-0.2812,-0.2799,-0.2793,-0.2791,-0.2825,-0.2779,-0.2781,-0.2782,-0.2877,-0.2887,-0.2896,0,0,0,0,0,0,-0.2796,-0.2824,-0.2817,-0.285,-0.2867,-0.2869,-0.2879,-0.2868,-0.2859,-0.2848,-0.2821,-0.2817,-0.2829,-0.2807,-0.2801,-0.2826,-0.2786,-0.2787,-0.2859,-0.2869,-0.2876,-0.2893,-0.2775,0,0,0,0,0,-0.2802,-0.2826,-0.2849,-0.287,-0.2883,-0.2877,-0.2883,-0.2881,-0.2877,-0.2872,-0.2857,-0.2836,-0.2833,-0.2834,-0.2823,-0.284,-0.2827,-0.2857,-0.2865,-0.2872,-0.2882,-0.289,-0.2901,-0.2788,-0.2788,-0.2788,0,0,-0.2804,-0.2822,-0.2834,-0.2871,-0.2875,-0.2916,-0.2879,-0.29,-0.2929,-0.287,-0.2891,-0.2863,-0.284,-0.286,-0.2864,-0.2848,-0.2897,-0.2874,-0.288,-0.2886,-0.2893,-0.2904,-0.2914,-0.2789,-0.2789,-0.2788,0,0,-0.2828,-0.2841,-0.2873,-0.2902,-0.2928,-0.2936,-0.2947,-0.2957,-0.2958,-0.2975,-0.2938,-0.2931,-0.2923,-0.2921,-0.2916,-0.2959,-0.2935,-0.2951,-0.3015,-0.3024,-0.3034,-0.3043,-0.3049,-0.3057,-0.2961,-0.2962,-0.2962,0,-0.2827,-0.2878,-0.2886,-0.2934,-0.2964,-0.2953,-0.3002,-0.3012,-0.3018,-0.3026,-0.2995,-0.2984,-0.2958,-0.2992,-0.3,-0.2981,-0.2977,-0.2987,-0.3037,-0.3045,-0.3052,-0.3056,-0.3064,-0.2967,-0.2966,-0.2966,-0.2965,0,-0.2883,-0.293,-0.2955,-0.3014,-0.3046,-0.3087,-0.3115,-0.3135,-0.3122,-0.3125,-0.3142,-0.3104,-0.3095,-0.309,-0.3057,-0.3099,-0.3076,-0.3045,-0.3021,-0.307,-0.3071,-0.3077,-0.2974,-0.2972,-0.2971,-0.2969,0,0,-0.2859,-0.2973,-0.298,-0.302,-0.3095,-0.3119,-0.3186,-0.3235,-0.3264,-0.326,-0.3292,-0.3276,-0.3236,-0.3226,-0.3187,-0.3195,-0.3232,-0.3145,-0.3143,-0.3164,-0.3255,-0.3255,-0.3261,-0.3213,-0.3214,-0.3215,-0.3239,0,-0.2896,-0.2995,-0.3052,-0.3138,-0.3188,-0.3231,-0.3293,-0.3331,-0.3347,-0.3374,-0.335,-0.3351,-0.3296,-0.3278,-0.3285,-0.3237,-0.3252,-0.3229,-0.3191,-0.319,-0.3195,-0.327,-0.295,-0.2946,-0.3245,-0.3246,-0.3247,0,-0.2928,-0.2991,-0.3087,-0.3197,-0.3223,-0.3273,-0.3352,-0.3408,-0.3462,-0.3469,-0.3481,-0.3454,-0.3458,-0.3392,-0.3378,-0.3365,-0.3321,-0.3289,-0.3289,-0.3258,-0.3203,-0.294,-0.2946,-0.3257,-0.3256,-0.3255,-0.3254,0,-0.2878,-0.3011,-0.308,-0.3122,-0.3247,-0.3288,-0.3343,-0.3419,-0.3474,-0.3513,-0.3543,-0.3545,-0.3533,-0.3499,-0.3433,-0.3403,-0.3419,-0.3365,-0.3335,-0.3334,-0.3039,-0.3011,-0.3368,-0.3368,-0.3368,-0.3368,-0.3368,0,-0.289,-0.2944,-0.3055,-0.3092,-0.3174,-0.3255,-0.3336,-0.3398,-0.3486,-0.3544,-0.3566,-0.36,-0.3557,-0.3559,-0.3486,-0.3447,-0.3462,-0.337,-0.3352,-0.3067,-0.3043,-0.3284,-0.3274,-0.3369,-0.3369,-0.3369,-0.3369,0,-0.283,-0.2911,-0.2995,-0.3116,-0.3155,-0.3199,-0.3339,-0.3387,-0.3482,-0.3561,-0.3574,-0.3647,-0.3642,-0.3619,-0.3566,-0.3517,-0.3469,-0.3447,-0.3128,-0.3074,-0.3362,-0.3356,-0.342,-0.3421,-0.3421,-0.3421,-0.3422,0,-0.2813,-0.2846,-0.2981,-0.3011,-0.3065,-0.3149,-0.3207,-0.3352,-0.3411,-0.3576,-0.3599,-0.3662,-0.3672,-0.3648,-0.3508,-0.3422,-0.349,-0.3146,-0.3043,-0.3398,-0.3373,-0.3367,-0.3361,-0.2675,-0.267,-0.2665,-0.2661,0,-0.2752,-0.2794,-0.2841,-0.2928,-0.2987,-0.3081,-0.3172,-0.3242,-0.3398,-0.3481,-0.3593,-0.3631,-0.3603,-0.3382,-0.3301,-0.319,-0.3137,-0.3054,-0.348,-0.2748,-0.2708,-0.268,-0.2696,-0.2618,-0.2622,-0.2626,-0.2628,-0.263,-0.2665,-0.2684,-0.2734,-0.2804,-0.2879,-0.2954,-0.297,-0.3058,-0.3152,-0.317,-0.3389,-0.33,-0.3297,-0.2982,-0.2873,-0.274,-0.2931,-0.2783,-0.2791,-0.2806,-0.2752,-0.2719,-0.262,-0.2624,-0.2627,-0.263,-0.2633,0,-0.2518,-0.2559,-0.2605,-0.2667,-0.2654,-0.2785,-0.2887,-0.2791,-0.2787,-0.2854,-0.2875,-0.2598,-0.2516,-0.2509,-0.224,-0.2259,-0.2145,-0.2184,-0.2007,-0.205,-0.2089,-0.1993,-0.1662,-0.166,-0.1657,-0.1655,0,0,-0.2431,-0.2398,-0.2433,-0.2382,-0.2435,-0.2345,-0.2363,-0.2257,-0.222,-0.2068,-0.202,-0.2223,-0.2383,-0.1981,-0.1935,-0.1759,-0.1864,-0.1664,-0.2429,-0.2255,-0.2291,-0.2417,-0.232,0,0,0,0,0]},{"header":{"parameterUnit":"m.s-1","parameterCategory":2,"la1":30.2991,"la2":30.254,"lo1":-89.0895,"lo2":-89.0444,"dy":0.0017,"dx":0.0017,"nx":28,"ny":28,"refTime":"2024-06-19T03:00:00:Z","depth":"2","parameterNumber":3,"parameterNumberName":"V-component_of_CURRENTS"},"data":[0,0,0,0,0,0,0,0,0,0,0,0,0,0,0,0,0,0,0,0,0,0,0,0,0,0,0,0,0,0,0,0,0,0,0,0,0,0,0,0,0,0,0,0,0,0,0,0,0,0,0,0,0,0,0,0,0,0,-0.0302,-0.03,0,-0.0148,-0.0146,-0.0145,-0.0057,-0.0057,-0.0057,-0.0057,0.0153,0.0158,0.0163,0,0,0,0,0,0,0,0,0,0,0,0,0,-0.042,-0.0419,-0.0302,-0.03,-0.0299,-0.0149,-0.0146,-0.0144,-0.0057,-0.0057,-0.0057,-0.0057,0.0151,0.0157,0.0164,0,0,0,0,0,0,0,0,0,0,0,0,0,-0.0327,-0.0419,-0.0302,-0.0239,-0.0231,-0.0149,-0.0146,-0.0143,-0.0058,-0.0057,-0.0057,-0.0057,0.0149,0.0157,0.0165,0.0211,0,0,0.019,0.0193,0,0,0,0,0,0,0,0,-0.0332,-0.0322,-0.025,-0.0243,-0.0235,-0.0123,-0.0111,-0.0023,-0.0058,-0.0122,-0.0057,-0.0057,0.0064,0.0079,0.011,0.0221,0.023,0.0191,0.0196,0.0199,0.0201,0,0,0,0,0,0,0,-0.0339,-0.0328,-0.024,-0.0248,-0.0239,-0.0183,-0.017,-0.0094,-0.0029,-0.0116,-0.011,-0.0095,0.0069,0.0101,0.0115,0.0233,0.019,0.0198,0.0203,0.0206,0.0402,0.0402,0,0,0,0,0,0,-0.0367,-0.0335,-0.0244,-0.0235,-0.0286,-0.0182,-0.0167,-0.0158,-0.0031,-0.0013,-0.0096,-0.0092,0.0087,0.0106,0.0123,0.0195,0.0199,0.0207,0.0211,0.0401,0.0402,0.0402,0,0,0,0,0,0,-0.037,-0.036,-0.0251,-0.0282,-0.0265,-0.0181,-0.017,-0.0155,-0.0123,-0.0017,0.0003,-0.0081,0.0088,0.0112,0.0193,0.0203,0.021,0.0218,0.0401,0.0401,0.0402,0.0333,0,0,0,0,0,0,-0.0374,-0.0363,-0.0366,-0.0285,-0.0264,-0.0209,-0.017,-0.0152,-0.0116,-0.0109,0.0003,0.0023,0.009,0.018,0.0201,0.0215,0.0224,0.0401,0.0401,0.0402,0.0335,0.0331,0.0328,0,0,0,0,0,-0.0379,-0.0386,-0.0367,-0.0356,-0.0272,-0.021,-0.0194,-0.0132,-0.0116,-0.0103,-0.0025,0.0019,0.0198,0.0187,0.0212,0.0228,0.04,0.0401,0.0402,0.0337,0.0332,0.0328,0,0,0,0,0,0,-0.044,-0.0375,-0.0354,-0.0341,-0.0285,-0.0196,-0.0181,-0.014,-0.0069,-0.0065,0.0032,0.0058,0.0129,0.0187,0.0172,0.0284,0.0303,0.0309,0.0246,0.0242,0.0239,0.0218,0.0231,0,0,0,0,0,-0.0457,-0.0446,-0.0373,-0.0365,-0.0342,-0.0264,-0.0233,-0.0191,-0.0119,-0.0088,-0.0008,0.0074,0.0152,0.0201,0.0273,0.0343,0.0393,0.0366,0.0362,0.0359,0.0358,0.0438,0.0441,0.0404,0.0404,0.0404,0,0,-0.0481,-0.0443,-0.0438,-0.0377,-0.0331,-0.0299,-0.0245,-0.0205,-0.017,-0.0075,-0.0008,0.0064,0.0164,0.0238,0.0275,0.029,0.0395,0.0359,0.0356,0.0357,0.0439,0.0443,0.0446,0.0405,0.0405,0.0404,0,0,-0.0524,-0.049,-0.0496,-0.045,-0.0388,-0.0332,-0.0327,-0.0241,-0.0196,-0.0124,-0.005,0.0028,0.0145,0.0225,0.0279,0.0301,0.0366,0.0317,0.0298,0.0375,0.0379,0.0383,0.0445,0.0455,0.0324,0.0324,0.0324,0,-0.0559,-0.0553,-0.0487,-0.0473,-0.0443,-0.0355,-0.0347,-0.0281,-0.0178,-0.0135,-0.0116,0.0063,0.0142,0.0249,0.0254,0.0294,0.034,0.0305,0.037,0.0375,0.038,0.0443,0.0455,0.0321,0.0321,0.0321,0.0322,0,-0.0597,-0.0591,-0.0589,-0.0543,-0.0495,-0.0477,-0.038,-0.0328,-0.0267,-0.0193,-0.0087,0.0026,0.0133,0.0169,0.0223,0.0303,0.0323,0.0347,0.0376,0.0379,0.0446,0.0459,0.0316,0.0317,0.0318,0.0319,0,0,-0.0686,-0.0633,-0.0634,-0.0626,-0.0535,-0.0501,-0.0435,-0.0347,-0.0303,-0.0195,-0.0124,0.0011,0.0072,0.0136,0.0218,0.0292,0.0365,0.0327,0.0332,0.0379,0.0525,0.0598,0.062,0.0397,0.0399,0.0401,0.0554,0,-0.0745,-0.0759,-0.0694,-0.0688,-0.0686,-0.0574,-0.0521,-0.0421,-0.0321,-0.0228,-0.0091,0.0001,0.0062,0.011,0.0195,0.0328,0.0398,0.032,0.0523,0.0529,0.0587,0.0638,0.0521,0.0653,0.0567,0.057,0.0571,0,-0.0806,-0.0808,-0.0826,-0.077,-0.0756,-0.0724,-0.0616,-0.0555,-0.0392,-0.0313,-0.0184,-0.007,0.0077,0.0109,0.0338,0.0283,0.039,0.0486,0.0494,0.0597,0.0628,0.064,0.0682,0.0595,0.0593,0.0591,0.059,0,-0.0915,-0.0894,-0.0917,-0.0897,-0.0818,-0.079,-0.0738,-0.0592,-0.0533,-0.0366,-0.0299,-0.0108,-0.0004,0.0157,0.0376,0.0353,0.0618,0.0615,0.0782,0.0788,0.0748,0.0747,0.0757,0.0757,0.0757,0.0756,0.0756,0,-0.1003,-0.1018,-0.0976,-0.0987,-0.1005,-0.0898,-0.087,-0.078,-0.0639,-0.0563,-0.0365,-0.025,0.0011,0.021,0.0374,0.0642,0.0626,0.0796,0.0845,0.0721,0.0717,0.0711,0.0704,0.0762,0.0761,0.076,0.0759,0,-0.1114,-0.1087,-0.1118,-0.1073,-0.1062,-0.1075,-0.0985,-0.0953,-0.0801,-0.069,-0.0639,-0.0345,-0.0066,0.0205,0.0501,0.0653,0.0884,0.0972,0.0812,0.0841,0.0992,0.098,0.1169,0.1174,0.1177,0.118,0.1182,0,-0.1171,-0.1205,-0.1212,-0.1243,-0.1229,-0.1223,-0.1216,-0.1071,-0.1011,-0.0739,-0.069,-0.0372,-0.0121,0.0367,0.0663,0.099,0.0997,0.1083,0.1031,0.1013,0.1041,0.1022,0.1005,0.0938,0.0939,0.0939,0.0939,0,-0.1285,-0.1289,-0.1318,-0.1403,-0.1421,-0.1423,-0.1382,-0.135,-0.115,-0.1007,-0.0745,-0.0512,-0.0009,0.0367,0.0815,0.0972,0.1026,0.1102,0.1141,0.0864,0.0812,0.0834,0.0821,0.0941,0.0941,0.0941,0.0941,0.094,-0.1367,-0.1432,-0.1481,-0.1557,-0.159,-0.1598,-0.1597,-0.1491,-0.1375,-0.1117,-0.0854,-0.049,-0.0055,0.0553,0.0856,0.1101,0.1119,0.1157,0.1148,0.1142,0.11,0.1059,0.1224,0.1226,0.1227,0.1228,0.1229,0,-0.1455,-0.1532,-0.1625,-0.1701,-0.1756,-0.1736,-0.1688,-0.1623,-0.1486,-0.1207,-0.092,-0.0447,0.0023,0.0451,0.0842,0.1134,0.105,0.1161,0.0995,0.0992,0.0989,0.0933,0.1017,0.1018,0.1018,0.1019,0,0,-0.1505,-0.1619,-0.1677,-0.1818,-0.1873,-0.1893,-0.1866,-0.173,-0.1523,-0.1236,-0.0966,-0.0555,0.0014,0.0266,0.0622,0.0824,0.0812,0.0811,0.0944,0.0699,0.0693,0.095,0.0857,0,0,0,0,0]}],[{"header":{"parameterUnit":"m.s-1","parameterCategory":2,"la1":30.2991,"la2":30.254,"lo1":-89.0895,"lo2":-89.0444,"dy":0.0017,"dx":0.0017,"nx":28,"ny":28,"refTime":"2024-06-19T03:00:00:Z","depth":"4","parameterNumber":2,"parameterNumberName":"U-component_of_CURRENTS"},"data":[0,0,0,0,0,0,0,0,0,0,0,0,0,0,0,0,0,0,0,0,0,0,0,0,0,0,0,0,0,0,0,0,0,0,0,0,0,0,0,0,0,0,0,0,0,0,0,0,0,0,0,0,0,0,0,0,0,0,-0.1736,-0.1737,0,-0.1772,-0.1772,-0.1772,-0.1799,-0.18,-0.18,-0.1801,-0.1838,-0.1839,-0.1839,0,0,0,0,0,0,0,0,0,0,0,0,0,-0.1638,-0.164,-0.1736,-0.1737,-0.1738,-0.1772,-0.1772,-0.1772,-0.1799,-0.18,-0.18,-0.1801,-0.1838,-0.1838,-0.1839,0,0,0,0,0,0,0,0,0,0,0,0,0,-0.1675,-0.164,-0.1736,-0.1758,-0.176,-0.1772,-0.1772,-0.1772,-0.1799,-0.18,-0.1801,-0.1801,-0.1838,-0.1838,-0.1839,-0.1828,0,0,-0.1841,-0.1842,0,0,0,0,0,0,0,0,-0.1673,-0.1678,-0.1754,-0.1756,-0.1759,-0.1785,-0.1751,-0.1792,-0.1799,-0.1781,-0.1801,-0.1802,-0.1822,-0.1824,-0.1824,-0.183,-0.1831,-0.1842,-0.1842,-0.1842,-0.1843,0,0,0,0,0,0,0,-0.167,-0.1676,-0.1747,-0.1755,-0.1758,-0.1747,-0.1754,-0.1759,-0.1794,-0.1782,-0.1785,-0.1794,-0.1823,-0.1824,-0.1826,-0.1832,-0.1841,-0.1842,-0.1843,-0.1843,-0.1913,-0.1915,0,0,0,0,0,0,-0.1675,-0.1674,-0.1746,-0.1749,-0.1721,-0.1749,-0.1756,-0.1773,-0.1794,-0.1799,-0.1793,-0.1795,-0.1822,-0.1825,-0.1827,-0.1916,-0.1842,-0.1843,-0.1843,-0.1912,-0.1914,-0.1915,0,0,0,0,0,0,-0.1672,-0.1681,-0.1745,-0.1714,-0.1722,-0.175,-0.1769,-0.1773,-0.1807,-0.1803,-0.1807,-0.1827,-0.1823,-0.1826,-0.1864,-0.1914,-0.1843,-0.1844,-0.191,-0.1913,-0.1915,-0.2029,0,0,0,0,0,0,-0.1669,-0.168,-0.1705,-0.1715,-0.1724,-0.1784,-0.1769,-0.1774,-0.181,-0.1814,-0.1832,-0.1835,-0.1823,-0.1863,-0.1865,-0.1914,-0.1845,-0.1909,-0.1911,-0.1914,-0.2023,-0.2035,-0.2044,0,0,0,0,0,-0.1666,-0.1696,-0.1707,-0.1716,-0.1755,-0.1786,-0.179,-0.1809,-0.1812,-0.1839,-0.1849,-0.1836,-0.1881,-0.1865,-0.1867,-0.1917,-0.1907,-0.1911,-0.1914,-0.2019,-0.2032,-0.2044,0,0,0,0,0,0,-0.1665,-0.1702,-0.1714,-0.1755,-0.1784,-0.1792,-0.182,-0.1828,-0.1855,-0.1865,-0.1855,-0.1859,-0.1908,-0.1892,-0.1875,-0.1942,-0.1892,-0.1895,-0.1971,-0.1984,-0.1994,-0.2001,-0.1845,0,0,0,0,0,-0.1677,-0.1713,-0.1741,-0.1777,-0.1796,-0.1812,-0.1831,-0.1846,-0.1864,-0.1879,-0.1893,-0.1902,-0.1916,-0.1935,-0.194,-0.1981,-0.1961,-0.2011,-0.2022,-0.2031,-0.2037,-0.2049,-0.2061,-0.1926,-0.1926,-0.1926,0,0,-0.1686,-0.1712,-0.1733,-0.178,-0.1801,-0.1844,-0.1827,-0.1869,-0.1912,-0.1877,-0.1946,-0.1941,-0.1933,-0.1979,-0.2,-0.1979,-0.2061,-0.2035,-0.2043,-0.2044,-0.2053,-0.2067,-0.2078,-0.1928,-0.1928,-0.1927,0,0,-0.1712,-0.1748,-0.1785,-0.182,-0.1867,-0.1883,-0.1905,-0.1939,-0.1968,-0.202,-0.2006,-0.2033,-0.2061,-0.2067,-0.207,-0.2139,-0.2112,-0.2145,-0.2216,-0.2228,-0.224,-0.2249,-0.225,-0.2259,-0.2157,-0.2157,-0.2157,0,-0.1722,-0.1776,-0.18,-0.1848,-0.1888,-0.1909,-0.1961,-0.1993,-0.2037,-0.2067,-0.2061,-0.2107,-0.2102,-0.2152,-0.2177,-0.2167,-0.2162,-0.2172,-0.2244,-0.2253,-0.2261,-0.2259,-0.2267,-0.2163,-0.2162,-0.2162,-0.2161,0,-0.1768,-0.1829,-0.1857,-0.1929,-0.1973,-0.2024,-0.2072,-0.2123,-0.2156,-0.2179,-0.2244,-0.2237,-0.226,-0.227,-0.2247,-0.2308,-0.2283,-0.2252,-0.2215,-0.2281,-0.2275,-0.2282,-0.2171,-0.2169,-0.2167,-0.2166,0,0,-0.1742,-0.1866,-0.1879,-0.1931,-0.2025,-0.2056,-0.2149,-0.2223,-0.2278,-0.2323,-0.2387,-0.2414,-0.2404,-0.2405,-0.2386,-0.2403,-0.2456,-0.2362,-0.236,-0.237,-0.2485,-0.2345,-0.2338,-0.2445,-0.2446,-0.2448,-0.2461,0,-0.1773,-0.1873,-0.1936,-0.2039,-0.2092,-0.2164,-0.2245,-0.2316,-0.237,-0.2437,-0.245,-0.2493,-0.2459,-0.2471,-0.2489,-0.2459,-0.2478,-0.2455,-0.2412,-0.2411,-0.2284,-0.2342,-0.2453,-0.2465,-0.2467,-0.2468,-0.2469,0,-0.1787,-0.1858,-0.1965,-0.2097,-0.2129,-0.22,-0.2324,-0.2398,-0.2496,-0.2537,-0.2589,-0.2592,-0.2631,-0.2582,-0.2591,-0.2581,-0.2546,-0.2521,-0.252,-0.2351,-0.2283,-0.2381,-0.248,-0.2479,-0.2478,-0.2477,-0.2477,0,-0.1725,-0.1872,-0.196,-0.2007,-0.2159,-0.2229,-0.231,-0.2426,-0.2498,-0.2595,-0.2645,-0.2687,-0.2708,-0.2689,-0.2643,-0.2624,-0.2638,-0.2597,-0.2444,-0.2434,-0.2505,-0.2494,-0.2605,-0.2605,-0.2605,-0.2605,-0.2605,0,-0.1712,-0.1784,-0.1942,-0.1987,-0.2099,-0.2207,-0.2325,-0.2414,-0.254,-0.2604,-0.2681,-0.2715,-0.2738,-0.2744,-0.2686,-0.2585,-0.2673,-0.2463,-0.243,-0.2553,-0.2547,-0.251,-0.2499,-0.2605,-0.2605,-0.2605,-0.2605,0,-0.1626,-0.1737,-0.1843,-0.2014,-0.2074,-0.2147,-0.2335,-0.2396,-0.2536,-0.2623,-0.2656,-0.2758,-0.2745,-0.2753,-0.2719,-0.2624,-0.2549,-0.2491,-0.2637,-0.2611,-0.2326,-0.232,-0.2315,-0.231,-0.2306,-0.2303,-0.23,0,-0.159,-0.1636,-0.1831,-0.1887,-0.1972,-0.2103,-0.2182,-0.2366,-0.2426,-0.2609,-0.262,-0.2695,-0.2721,-0.2577,-0.2594,-0.2501,-0.2458,-0.2425,-0.236,-0.2329,-0.2298,-0.2299,-0.2299,-0.2293,-0.2292,-0.2291,-0.229,0,-0.1503,-0.1585,-0.1659,-0.1784,-0.1883,-0.1993,-0.2118,-0.2164,-0.2343,-0.2503,-0.2514,-0.2508,-0.2503,-0.2461,-0.2424,-0.2348,-0.2449,-0.2382,-0.2388,-0.2327,-0.2303,-0.2276,-0.2281,-0.2276,-0.2278,-0.228,-0.228,0,-0.1418,-0.1447,-0.1546,-0.164,-0.1759,-0.1821,-0.193,-0.1999,-0.2102,-0.2313,-0.2303,-0.2373,-0.2475,-0.2381,-0.2335,-0.2268,-0.2211,-0.2131,-0.2149,-0.2165,-0.2106,-0.2053,-0.1928,0,0,0,0,0,-0.1317,-0.1322,-0.139,-0.1479,-0.1589,-0.1658,-0.1845,-0.1951,-0.2145,-0.2096,-0.2202,-0.218,-0.214,-0.2182,-0.2069,-0.2237,-0.2206,-0.2098,-0.2121,-0.2199,-0.2215,-0.2156,0,0,0,0,0,0,-0.124,-0.1287,-0.1322,-0.1311,-0.133,-0.1437,-0.1548,-0.169,-0.1692,-0.1891,-0.1875,-0.2027,-0.2006,-0.2135,-0.2004,-0.2015,-0.1986,-0.2159,-0.2154,-0.219,-0.2204,-0.2217,-0.2163,0,0,0,0,0]},{"header":{"parameterUnit":"m.s-1","parameterCategory":2,"la1":30.2991,"la2":30.254,"lo1":-89.0895,"lo2":-89.0444,"dy":0.0017,"dx":0.0017,"nx":28,"ny":28,"refTime":"2024-06-19T03:00:00:Z","depth":"4","parameterNumber":3,"parameterNumberName":"V-component_of_CURRENTS"},"data":[0,0,0,0,0,0,0,0,0,0,0,0,0,0,0,0,0,0,0,0,0,0,0,0,0,0,0,0,0,0,0,0,0,0,0,0,0,0,0,0,0,0,0,0,0,0,0,0,0,0,0,0,0,0,0,0,0,0,-0.0203,-0.0202,0,-0.0105,-0.0104,-0.0102,-0.0048,-0.0049,-0.0049,-0.0049,0.0119,0.0124,0.0128,0,0,0,0,0,0,0,0,0,0,0,0,0,-0.0268,-0.0268,-0.0203,-0.0202,-0.0201,-0.0105,-0.0104,-0.0102,-0.0048,-0.0049,-0.0049,-0.0049,0.0118,0.0123,0.0129,0,0,0,0,0,0,0,0,0,0,0,0,0,-0.021,-0.0268,-0.0204,-0.0164,-0.016,-0.0105,-0.0103,-0.0102,-0.0048,-0.0049,-0.0049,-0.0049,0.0116,0.0123,0.0129,0.0172,0,0,0.015,0.0153,0,0,0,0,0,0,0,0,-0.0214,-0.0208,-0.0171,-0.0167,-0.0162,-0.0091,-0.0065,-0.0007,-0.0048,-0.0089,-0.0049,-0.0049,0.0054,0.0066,0.0087,0.018,0.0187,0.0151,0.0155,0.0158,0.0159,0,0,0,0,0,0,0,-0.0218,-0.0211,-0.0162,-0.017,-0.0165,-0.0125,-0.0118,-0.0053,-0.0015,-0.0085,-0.0082,-0.0074,0.0058,0.008,0.0091,0.019,0.015,0.0156,0.0161,0.0163,0.0328,0.0328,0,0,0,0,0,0,-0.0238,-0.0216,-0.0166,-0.016,-0.0191,-0.0125,-0.0116,-0.0112,-0.0017,-0.0004,-0.0074,-0.0072,0.0068,0.0083,0.0097,0.0157,0.0157,0.0164,0.0168,0.0328,0.0328,0.0329,0,0,0,0,0,0,-0.024,-0.0235,-0.017,-0.0187,-0.0176,-0.0124,-0.012,-0.011,-0.009,-0.001,0.0005,-0.0064,0.0069,0.0088,0.0153,0.0164,0.0167,0.0173,0.0327,0.0328,0.0328,0.0275,0,0,0,0,0,0,-0.0242,-0.0236,-0.0241,-0.0188,-0.0176,-0.0143,-0.0119,-0.0108,-0.0086,-0.0082,0.0004,0.0019,0.007,0.0142,0.0159,0.0173,0.0178,0.0327,0.0328,0.0328,0.0277,0.0274,0.0272,0,0,0,0,0,-0.0245,-0.025,-0.0242,-0.0235,-0.0184,-0.0144,-0.0133,-0.0095,-0.0086,-0.0077,-0.0019,0.0016,0.0158,0.0148,0.0168,0.0184,0.0327,0.0327,0.0328,0.0278,0.0274,0.0272,0,0,0,0,0,0,-0.028,-0.0244,-0.0233,-0.0228,-0.0193,-0.0135,-0.0126,-0.01,-0.0049,-0.0046,0.0027,0.0048,0.0105,0.0152,0.0139,0.0232,0.0246,0.0251,0.0201,0.0199,0.0196,0.0178,0.0184,0,0,0,0,0,-0.0292,-0.0289,-0.0244,-0.0242,-0.0228,-0.018,-0.016,-0.0134,-0.0083,-0.0062,-0.0001,0.0064,0.0125,0.0165,0.0222,0.0281,0.0319,0.0302,0.03,0.0297,0.0295,0.036,0.0362,0.0331,0.0331,0.0331,0,0,-0.0307,-0.0286,-0.0286,-0.025,-0.0222,-0.0203,-0.0168,-0.0144,-0.0122,-0.0049,-0.0001,0.0056,0.0136,0.0196,0.0227,0.0238,0.0325,0.0298,0.0295,0.0295,0.0361,0.0364,0.0366,0.0331,0.0331,0.0331,0,0,-0.0336,-0.0317,-0.0325,-0.0298,-0.0262,-0.0226,-0.0224,-0.0168,-0.0138,-0.0085,-0.003,0.0034,0.0126,0.019,0.0233,0.0254,0.0303,0.0268,0.0253,0.0315,0.0318,0.0321,0.0365,0.0372,0.0274,0.0274,0.0274,0,-0.0358,-0.0361,-0.032,-0.0314,-0.0299,-0.0242,-0.0241,-0.0195,-0.0125,-0.0095,-0.008,0.0061,0.0125,0.0211,0.0216,0.0249,0.0282,0.0257,0.0311,0.0315,0.0319,0.0363,0.0372,0.0271,0.0272,0.0272,0.0272,0,-0.0385,-0.0389,-0.0389,-0.0367,-0.0338,-0.033,-0.0266,-0.0231,-0.019,-0.0139,-0.0057,0.0035,0.0118,0.015,0.0193,0.0259,0.0271,0.0292,0.0314,0.0319,0.0365,0.0375,0.0268,0.0269,0.0269,0.027,0,0,-0.0439,-0.0418,-0.0421,-0.0424,-0.0369,-0.0351,-0.0308,-0.0251,-0.0225,-0.0141,-0.0093,0.0021,0.0068,0.0119,0.0188,0.0249,0.0306,0.0277,0.0281,0.0312,0.0429,0.0394,0.0402,0.0334,0.0336,0.0337,0.0446,0,-0.048,-0.0503,-0.0465,-0.0474,-0.048,-0.0409,-0.0378,-0.0312,-0.0242,-0.0178,-0.0066,0.0002,0.0059,0.0096,0.0169,0.0276,0.0332,0.0274,0.0427,0.0432,0.0394,0.0413,0.0343,0.0454,0.0456,0.0458,0.0459,0,-0.052,-0.0534,-0.0562,-0.0543,-0.0537,-0.0525,-0.0464,-0.0426,-0.0311,-0.0255,-0.0154,-0.0065,0.0056,0.0088,0.0275,0.0233,0.0319,0.0397,0.0404,0.0397,0.0416,0.0453,0.0478,0.0477,0.0475,0.0474,0.0473,0,-0.059,-0.0596,-0.0628,-0.0621,-0.0587,-0.058,-0.0554,-0.0459,-0.0423,-0.0304,-0.0259,-0.0103,-0.0022,0.0113,0.0289,0.0279,0.0483,0.0493,0.0543,0.0542,0.0563,0.0559,0.0606,0.0606,0.0606,0.0605,0.0605,0,-0.0642,-0.0667,-0.0672,-0.0687,-0.0725,-0.0662,-0.0664,-0.0606,-0.0514,-0.0469,-0.0315,-0.0235,-0.0014,0.014,0.0279,0.0447,0.0481,0.0542,0.0571,0.0537,0.0529,0.057,0.0565,0.0609,0.0609,0.0608,0.0607,0,-0.0701,-0.0705,-0.0751,-0.0754,-0.0762,-0.0788,-0.076,-0.0748,-0.0649,-0.058,-0.0544,-0.0323,-0.0124,0.0095,0.0334,0.0427,0.0593,0.064,0.0584,0.0608,0.0608,0.0598,0.0696,0.0695,0.0695,0.0695,0.0695,0,-0.0729,-0.0763,-0.0822,-0.0865,-0.0874,-0.0902,-0.0919,-0.0837,-0.0804,-0.0629,-0.0595,-0.0378,-0.0222,0.0097,0.0317,0.0579,0.0607,0.0679,0.0644,0.06,0.0619,0.061,0.0601,0.0694,0.0694,0.0694,0.0694,0,-0.0784,-0.0816,-0.0856,-0.0961,-0.1007,-0.1044,-0.1046,-0.1025,-0.0906,-0.0824,-0.0629,-0.0422,-0.0192,0.0077,0.0289,0.0475,0.0627,0.0677,0.0678,0.0646,0.06,0.0617,0.0609,0.0694,0.0694,0.0694,0.0694,0,-0.0826,-0.0882,-0.0953,-0.1033,-0.1112,-0.1146,-0.1139,-0.1069,-0.1013,-0.08,-0.0741,-0.0453,-0.0269,0.0024,0.0222,0.0403,0.0432,0.0463,0.0475,0.0479,0.0382,0.029,0.0315,0,0,0,0,0,-0.0855,-0.0919,-0.1012,-0.1097,-0.1178,-0.1209,-0.1199,-0.1161,-0.1047,-0.0934,-0.0826,-0.0605,-0.0259,-0.0085,0.0084,0.019,0.0442,0.0389,0.0477,0.0689,0.069,0.061,0,0,0,0,0,0,-0.0876,-0.0969,-0.1019,-0.1132,-0.1193,-0.1262,-0.1255,-0.1179,-0.1089,-0.0948,-0.0761,-0.0608,-0.0274,-0.0371,0.0071,0.0135,0.0202,0.0572,0.0575,0.0689,0.069,0.069,0.0609,0,0,0,0,0]}]]